Location: Ostrava
(49.8330°N, 18.2830°E)
Time: 14:48:53
(UTC+01:00)

Transit 2A - All Passes

Search period start: 09 February 2016 00:00
Search period end: 19 February 2016 00:00
Orbit: 599 x 961 km, 66.7° (Epoch: 08 February)

Date Brightness Start Highest point End Pass type
(mag) Time Alt. Az. Time Alt. Az. Time Alt. Az.
09 Feb - 08:12:21 10° S 08:16:04 28° ESE 08:19:55 10° NE daylight
09 Feb - 09:54:51 10° WSW 09:59:01 43° NW 10:03:27 10° NNE daylight
09 Feb - 11:41:02 10° NW 11:43:28 14° NNW 11:46:00 10° NNE daylight
09 Feb - 13:27:32 10° N 13:28:51 11° N 13:30:11 10° NNE daylight
09 Feb - 15:10:05 10° NNW 15:13:56 22° NNE 15:18:03 10° E daylight
09 Feb - 16:52:43 10° NW 16:57:50 79° NE 17:03:30 10° SE daylight
09 Feb - 18:36:46 10° WNW 18:40:37 21° WSW 18:44:42 10° SSW visible
10 Feb - 07:39:13 10° SSE 07:42:20 20° ESE 07:45:33 10° ENE daylight
10 Feb - 09:20:42 10° SW 09:25:00 60° NW 09:29:35 10° NNE daylight
10 Feb - 11:06:18 10° WNW 11:09:12 17° NNW 11:12:14 10° NNE daylight
10 Feb - 12:53:25 10° N 12:54:29 11° N 12:55:34 10° NNE daylight
10 Feb - 14:36:17 10° NNW 14:39:43 18° NNE 14:43:22 10° ENE daylight
10 Feb - 16:18:50 10° NNW 16:23:52 60° NE 16:29:26 10° SE daylight
10 Feb - 18:02:24 10° NW 18:06:51 28° WSW 18:11:39 10° S visible
11 Feb - 07:06:35 10° SE 07:08:40 13° ESE 07:10:48 10° ENE daylight
11 Feb - 08:46:42 10° SW 08:51:03 85° NW 08:55:40 10° NE daylight
11 Feb - 10:31:40 10° WNW 10:34:58 20° NNW 10:38:26 10° NNE daylight
11 Feb - 12:18:59 10° NNW 12:20:07 11° N 12:21:16 10° N daylight
11 Feb - 14:02:29 10° NNW 14:05:28 16° NNE 14:08:35 10° ENE daylight
11 Feb - 15:44:58 10° NNW 15:49:51 45° NE 15:55:13 10° ESE daylight
11 Feb - 17:28:13 10° NW 17:33:03 39° WSW 17:38:19 10° S visible
12 Feb - 08:12:51 10° SSW 08:17:09 67° ESE 08:21:42 10° NE daylight
12 Feb - 09:57:08 10° W 10:00:47 24° NW 10:04:38 10° NNE daylight
12 Feb - 11:44:16 10° NNW 11:45:45 11° N 11:47:16 10° N daylight
12 Feb - 13:28:41 10° NNW 13:31:10 14° NNE 13:33:46 10° NE daylight
12 Feb - 15:11:09 10° NNW 15:15:48 35° NE 15:20:53 10° ESE daylight
12 Feb - 16:54:09 10° NW 16:59:12 53° WSW 17:04:46 10° SSE daylight
13 Feb - 07:39:10 10° S 07:43:19 46° ESE 07:47:40 10° NE daylight
13 Feb - 09:22:43 10° WSW 09:26:39 31° NW 09:30:49 10° NNE daylight
13 Feb - 11:09:29 10° NW 11:11:25 12° NNW 11:13:24 10° N daylight
13 Feb - 12:54:50 10° N 12:56:51 12° NNE 12:58:55 10° NE daylight
13 Feb - 14:37:19 10° NNW 14:41:41 28° NE 14:46:25 10° E daylight
13 Feb - 16:20:09 10° NW 16:25:19 72° WSW 16:31:02 10° SSE daylight
13 Feb - 18:05:15 10° WNW 18:07:49 14° WSW 18:10:28 10° SW visible
14 Feb - 07:05:41 10° S 07:09:32 31° ESE 07:13:32 10° NE daylight
14 Feb - 08:48:24 10° WSW 08:52:33 40° NW 08:57:00 10° NNE daylight
14 Feb - 10:34:42 10° NW 10:37:06 14° NNW 10:39:35 10° NNE daylight
14 Feb - 12:20:55 10° N 12:22:30 11° N 12:24:07 10° NNE daylight
14 Feb - 14:03:31 10° NNW 14:07:32 23° NNE 14:11:51 10° E daylight
14 Feb - 15:46:13 10° NW 15:51:24 85° ENE 15:57:09 10° SE daylight
14 Feb - 17:30:24 10° WNW 17:34:07 19° WSW 17:38:02 10° SSW visible
15 Feb - 06:32:27 10° SSE 06:35:48 22° ESE 06:39:14 10° ENE daylight
15 Feb - 08:14:14 10° SW 08:18:32 55° NW 08:23:07 10° NNE daylight
15 Feb - 09:59:58 10° WNW 10:02:49 16° NNW 10:05:47 10° NNE daylight
15 Feb - 11:46:50 10° NNW 11:48:08 11° N 11:49:28 10° NNE daylight
15 Feb - 13:29:43 10° NNW 13:33:20 19° NNE 13:37:12 10° ENE daylight
15 Feb - 15:12:18 10° NNW 15:17:26 65° NE 15:23:06 10° SE daylight
15 Feb - 16:55:59 10° WNW 17:00:22 26° WSW 17:05:05 10° SSW daylight
16 Feb - 05:59:38 10° SE 06:02:06 15° ESE 06:04:38 10° ENE visible
16 Feb - 07:40:12 10° SW 07:44:33 78° NW 07:49:13 10° NE daylight
16 Feb - 09:25:19 10° WNW 09:28:34 19° NNW 09:31:59 10° NNE daylight
16 Feb - 11:12:29 10° NNW 11:13:46 11° N 11:15:04 10° NNE daylight
16 Feb - 12:55:55 10° NNW 12:59:05 17° NNE 13:02:27 10° ENE daylight
16 Feb - 14:38:26 10° NNW 14:43:26 49° NE 14:48:56 10° ESE daylight
16 Feb - 16:21:46 10° NW 16:26:34 36° WSW 16:31:48 10° S daylight
17 Feb - 07:06:18 10° SSW 07:10:39 75° ESE 07:15:15 10° NE daylight
17 Feb - 08:50:45 10° W 08:54:21 23° NNW 08:58:11 10° NNE daylight
17 Feb - 10:37:52 10° NNW 10:39:23 11° N 10:40:57 10° NNE daylight
17 Feb - 12:22:05 10° NNW 12:24:48 14° NNE 12:27:39 10° NE daylight
17 Feb - 14:04:35 10° NNW 14:09:23 38° NE 14:14:38 10° ESE daylight
17 Feb - 15:47:40 10° NW 15:52:45 49° WSW 15:58:18 10° SSE daylight
18 Feb - 06:32:34 10° SSW 06:36:47 51° ESE 06:41:15 10° NE daylight
18 Feb - 08:16:18 10° W 08:20:12 29° NW 08:24:21 10° NNE daylight
18 Feb - 10:03:07 10° NW 10:05:03 12° NNW 10:07:01 10° NNE daylight
18 Feb - 11:48:14 10° NNW 11:50:29 13° NNE 11:52:49 10° NE daylight
18 Feb - 13:30:46 10° NNW 13:35:17 30° NE 13:40:12 10° E daylight
18 Feb - 15:13:39 10° NW 15:18:52 67° WSW 15:24:36 10° SSE daylight
18 Feb - 16:59:05 10° W 17:01:17 12° WSW 17:03:34 10° SW daylight
